www.pogodaiklimat.ru

Погода и климат >> Архив погоды >> Ирак >> Fao


ПОГОДА в Fao

  • Прогноз погоды в Fao
  • Монитор погоды в Fao
  • Климат города

АРХИВ ПОГОДЫ в Fao

Время (UTC), дата Ветер
(напр.,м/с)
 
Видим.   Явления Облачность Т
(С)
Тd
(С)
f
(%)
Тe
(С)
Тes
(С)
Комфортность P
(гПа)
Po
(гПа)
Тmin
(С)
Tmax
(С)
R
(мм)
R24
(мм)
S
(см)
12 18.02 СЗ 4 6000 м пыль ясно +23.4 +6.4 33 +24 +27 комфорт 1014.2 1014.0
15 18.02 СЗ 2 6000 м пыль ясно +20.4 +7.2 42 +22 +22 комфорт 1015.0 1015.0
18 18.02 СЗ 3 5000 м пыль ясно +18.0 +8.4 53 +18 +18 1016.2 1016.0 +23.8 0.0
21 18.02 Ю 2 8000 м пыль ясно +15.2 +9.9 71 +15 +15 1015.4 1015.0
00 19.02 штиль 0 8000 м пыль ясно +14.5 +9.7 73 +14 +14 1015.0 1015.0
06 19.02 СВ 2 2000 м пыль ясно +17.4 +7.5 52 +18 +24 1017.6 1018.0 +14.0
09 19.02 СВ 3 3000 м пыль ясно +22.4 +8.0 40 +24 +34 комфорт 1016.8 1017.0
12 19.02 ЮЗ 3 6000 м пыль 3/3 1200 м
[Cu med, cong]
+23.8 +2.7 25 +23 +26 комфорт 1015.8 1016.0
15 19.02 ЮЗ 4 10 км 3/3 1200 м
[Cu med, cong]
+20.5 +6.5 40 +22 +22 комфорт 1017.2 1017.0
18 19.02 ЮЗ 2 10 км ясно +16.8 +5.7 48 +17 +17 1018.6 1019.0 +24.2
21 19.02 ЮЗ 2 10 км ясно +14.2 +5.8 57 +14 +14 1018.6 1019.0
00 20.02 З 2 10 км ясно +12.6 +7.2 70 +12 +12 1018.8 1019.0
03 20.02 ЮЗ 2 10 км ясно +10.2 +5.4 72 +9 +9 1019.2 1019.0
06 20.02 ЮЗ 2 10 км ясно +14.8 +9.8 72 +15 +21 1020.4 1020.0 +8.5
09 20.02 ЮЗ 2 10 км ясно +22.0 +6.9 38 +23 +36 комфорт 1019.6 1020.0
12 20.02 ЮЗ 3 10 км 8/0
[Ac trans Ci fib]
+22.4 +5.3 33 +23 +26 комфорт 1017.4 1017.0
15 20.02 ЮЗ 2 10 км 6/0
[Ac trans Ci fib]
+20.8 +6.4 39 +22 +22 комфорт 1017.2 1017.0
18 20.02 ЮЗ 2 10 км 5/0
[Ac trans Ci fib]
+18.5 +6.5 45 +19 +19 1017.6 1018.0 +23.8
21 20.02 З 2 10 км 3/0
[Ci fib]
+17.0 +7.5 54 +17 +17 1016.8 1017.0
03 21.02 штиль 0 10 км 6/0
[Ac trans Ci fib]
+15.0 +8.0 63 +15 +15 1017.2 1017.0
06 21.02 В 2 10 км 10/4 1200 м
[Cu hum Ac As]
+16.2 +8.4 60 +16 +18 1017.2 1017.0 +14.0
09 21.02 штиль 0 10 км 5/4 1200 м
[Cu hum Ac trans Ci fib]
+22.4 +7.0 37 +23 +33 комфорт 1017.0 1017.0
12 21.02 СВ 2 10 км 9/1
[Cu hum Ac trans Cs]
+23.0 +8.4 39 +24 +27 комфорт 1014.2 1014.0
15 21.02 В 2 10 км 10/4 1200 м
[Cu hum Ac As]
+19.0 +11.0 60 +20 +20 1014.0 1014.0
18 21.02 В 2 10 км 9/3 1200 м
[Cu hum Ac As Ci fib]
+18.0 +12.3 69 +19 +19 1014.4 1014.0 +24.6
21 21.02 В 2 10 км 9/4 1200 м
[Cu hum Ac As Ci fib]
+17.8 +13.6 76 +18 +18 1013.8 1014.0
00 22.02 СВ 3 10 км в посл. час дождь 10/4 1200 м
[Cu hum Ac As]
+17.6 +11.0 65 +18 +18 1013.0 1013.0
03 22.02 СВ 3 10 км в посл. час дождь 10/5 750 м
[Cb cap Ac As]
+18.4 +12.3 68 +19 +19 1014.2 1014.0
06 22.02 В 10 8000 м в посл. час ливневой дождь 9/8 900 м
[Cu Sc Ac trans]
+19.4 +13.1 67 +20 +20 1012.8 1013.0 +16.8 0.0
09 22.02 В 10 10 км 8/6 1050 м
[Cu Sc Ac trans]
+21.5 +14.0 62 +24 +24 комфорт 1012.2 1012.0
12 22.02 В 11 10 км 9/3 1200 м
[Cu med, cong Ac As]
+22.2 +14.1 60 +25 +25 комфорт 1011.6 1012.0
18 22.02 ЮВ 5 10 км 4/4 1200 м
[Cu med, cong Ac trans]
+19.0 +14.6 76 +20 +20 1013.0 1013.0 +22.8
21 22.02 штиль 0 10 км ясно +17.4 +14.7 84 +17 +17 1013.6 1014.0
00 23.02 штиль 0 10 км ясно +16.2 +14.5 90 +16 +16 1013.0 1013.0
06 23.02 СВ 2 10 км 5/0
[Ac trans Ci sp]
+19.8 +14.7 72 +22 +28 комфорт 1014.8 1015.0 +13.0
09 23.02 СВ 3 10 км 8/0
[Ac trans Ci sp]
+21.4 +15.4 69 +25 +32 комфорт 1014.2 1014.0
12 23.02 СВ 2 10 км 6/4 1200 м
[Cu med, cong Ac trans]
+22.0 +14.2 61 +25 +28 комфорт 1013.4 1013.0
15 23.02 СВ 2 10 км 9/8 1050 м
[Cu Sc Ac trans]
+20.4 +13.4 64 +23 +23 комфорт 1012.8 1013.0
21 23.02 СВ 2 8000 м в посл. час ливневой дождь 9/5 1200 м
[Cu med, cong Ac As]
+18.6 +14.4 77 +20 +20 1012.0 1012.0
00 24.02 СВ 2 10 км 5/4 1200 м
[Cu hum Ac trans]
+17.8 +15.0 84 +18 +18 1011.8 1012.0
03 24.02 СВ 2 10 км 9/9 1050 м
[Cu Sc]
+18.8 +14.3 75 +20 +20 1010.4 1010.0
06 24.02 СВ 3 8000 м слабый ливневой дождь 10/5 900 м
[Cb cap Ac As]
+19.4 +15.4 78 +21 +22 комфорт 1013.0 1013.0 +17.0 0.0
09 24.02 СВ 2 6000 м слабый дождь 10/5 900 м
[Cb cap Ac As]
+18.6 +16.6 88 +20 +22 1014.0 1014.0
12 24.02 СВ 2 10 км в посл. час дождь 10/5 900 м
[Cb cap Ac As]
+18.4 +15.4 83 +19 +20 1012.0 1012.0
15 24.02 С 3 4000 м дождь 10/5 900 м
[Cu hum Ac As]
+15.8 +15.1 96 +15 +15 1012.2 1012.0
18 24.02 С 2 8000 м в посл. час морось {дождь} 10/5 450 м
[St Ac As]
+15.4 +14.7 96 +15 +15 1012.4 1012.0 +19.6 15
21 24.02 СВ 2 10 км 3/3 1200 м
[Cu hum]
+15.2 +14.5 96 +15 +15 1011.4 1011.0
00 25.02 ЮЗ 2 10 км 5/5 1200 м
[Cu hum]
+14.8 +13.7 93 +14 +14 1012.2 1012.0
03 25.02 ЮЗ 3 4000 м дымка 5/5 1200 м
[Cu hum]
+15.0 +13.9 93 +14 +14 1013.8 1014.0

 

Местоположение метеостанции Fao (Ирак): широта 29.98 долгота 48.50 высота над уровнем моря 2 м.

В архиве по умолчанию представлена погода в Fao за последнюю неделю. Архивные данные за месяц целиком и за предыдущие месяцы, начиная с января 2011 года, Вы можете получить, выбрав интересующий диапазон дат из раскрывающегося списка и нажав кнопку "Ввод!".

Внимание! Время в таблицах - всемирное. Для получения местного времени необходимо прибавить поправку, которая в Fao равна 3 ч.

Смотрите также архив погоды в соседних городах и на ближайших метеорологических станциях:

Погода в Bubiyan (Кувейт) (26 км)
Погода в Abadan (Иран) (50 км)
Погода в Failaka Island (Кувейт) (61 км)
Погода в Sabriyah (Кувейт) (68 км)
Погода в Abdaly (Кувейт) (78 км)
Погода в Al-Shuaiba (Кувейт) (80 км)
Погода в Kuwait City (Кувейт) (84 км)
Погода в Basrah Airport (Ирак) (92 км)
Погода в Experimental Farm (Кувейт) (94 км)
Погода в Basrah (Ирак) (95 км)

Пояснения к столбцам:

Ветер - указаны скорость ветра в м/с - средняя за 10 мин, порывы в срок и между сроками (в фигурных скобках) и направление, откуда дует ветер: С - северный, СВ - северо-восточный, В - восточный, ЮВ - юго-восточный, Ю - южный, ЮЗ - юго-западный, З - западный, СЗ - северо-западный.
Видимость - горизонтальная дальность видимости в метрах или километрах. При видимости от 1 до 10 км при отсутствии осадков обычно наблюдается дымка, при ухудшении видимости до 1 км и менее - туман. В сухую погоду видимость может ухудшаться дымом, пылью или мглою.
Явления - указаны атмосферные явления, наблюдавшиеся в срок или в последний час перед сроком; фигурными скобками обозначены явления, наблюдавшиеся между сроками (за 1-3 часа до срока); квадратными скобками обозначены град или гололедные отложения с указанием их диаметра в мм.
Облачность - указаны через наклонную черту общая и нижняя облачность в баллах и высота нижней границы облаков в метрах; квадратными скобками обозначены формы облаков: Ci - перистые, Cs - перисто-слоистые, Cc - перисто-кучевые, Ac - высококучевые, As - высокослоистые, Sc - слоисто-кучевые, Ns - слоисто-дождевые, Cu - кучевые, Cb - кучево-дождевые. Подробнее классификацию облаков см. в Атласе облаков (PDF).
T - Температура воздуха - температура, измеренная на высоте 2 м над землей.
Td - Температура точки росы - температура, при понижении до которой содержащийся в воздухе водяной пар достигнет насыщения.
f - Относительная влажность воздуха - влажноcть воздуха, измеренная на высоте 2 м над землей.
Te - Эффективная температура - температура, которую ощущает одетый по сезону человек в тени. Характеристика душности погоды. При расчете учитывается влияние влажности воздуха и скорости ветра на теплоощущения человека.
Tes - Эффективная температура на солнце - температура, которую ощущает человек, с поправкой на солнечный нагрев. Характеристика знойности погоды. Зависит от высоты солнца над горизонтом, облачности и скорости ветра. Ночью, в пасмурную погоду, а также при ветре 12 м/с и более поправка равна нулю.
P - Атмосферное давление - приведенное к уровню моря атмосферное давление.
Po - Атмосферное давление - измеренное на уровне метеостанции атмосферное давление.
Tmin - Минимальная температура - минимум температуры воздуха на высоте 2 м над землей.
Tmax - Максимальная температура - максимум температуры воздуха на высоте 2 м над землей.
R - Количество осадков - Количество выпавших осадков за период времени, мм. При наведении курсора мыши на число - период времени, за который выпало указанное количество осадков.
R24 - Количество осадков - Количество выпавших осадков за 24 часа, мм.
S - Снежный покров - Высота снежного покрова, см. При наведении курсора мыши на число - состояние снежного покрова и степень покрытия местности в баллах.